Terminal Aerodrome Forecast
Issued by NWS

Home | Current Version | Previous Version | Text Only | Print | Product List | Glossary On
Versions: 1 2 3 4 5 6 7 8 9 10 11 12 13 14 15 16 17 18 19 20 21 22 23 24 25 26 27 28 29 30 31 32 33
000
FTUS45 KCYS 210648 AAA
TAFRWL
TAF AMD
KRWL 210648Z 2107/2206 24015KT P6SM BKN025 OVC050
     FM211200 24025G35KT P6SM VCSH SCT020 OVC040
     FM211600 24030G40KT 1SM -SN BKN025
     FM212100 26030G40KT 5SM -SN SCT020 OVC040=

USA.gov is the U.S. government's official web portal to all federal, state and local government web resources and services.